Météo par heure à Aylesbury

Ce jour, 29 Septembre, Mardi

Heure Température Précipitation Vent Pression Humidité
00:00 +15°C° 0 mm 2 m/s 752 mmHg 97%
01:00 +15°C° 0.1 mm 1 m/s 752 mmHg 97%
02:00 +15°C° 0.1 mm 1 m/s 752 mmHg 97%
03:00 +15°C° 0.1 mm 1 m/s 752 mmHg 97%
04:00 +14°C° 0 mm 2 m/s 752 mmHg 95%
05:00 +14°C° 0 mm 2 m/s 752 mmHg 94%
06:00 +13°C° 0 mm 3 m/s 753 mmHg 92%
07:00 +13°C° 0 mm 3 m/s 753 mmHg 91%
08:00 +13°C° 0 mm 3 m/s 753 mmHg 89%
09:00 +13°C° 0 mm 3 m/s 753 mmHg 88%
10:00 +14°C° 0 mm 3 m/s 753 mmHg 82%
11:00 +16°C° 0 mm 3 m/s 753 mmHg 76%
12:00 +17°C° 0 mm 3 m/s 754 mmHg 71%
13:00 +17°C° 0.1 mm 3 m/s 753 mmHg 68%
14:00 +17°C° 0.1 mm 2 m/s 753 mmHg 64%
15:00 +17°C° 0.1 mm 2 m/s 753 mmHg 61%
16:00 +18°C° 0 mm 1 m/s 753 mmHg 63%
17:00 +16°C° 0 mm 1 m/s 753 mmHg 65%
18:00 +14°C° 0 mm 0 m/s 753 mmHg 67%
19:00 +14°C° 0 mm 1 m/s 753 mmHg 70%
20:00 +14°C° 0 mm 1 m/s 753 mmHg 72%
21:00 +14°C° 0 mm 1 m/s 753 mmHg 74%
22:00 +13°C° 0 mm 2 m/s 752 mmHg 77%
23:00 +13°C° 0 mm 2 m/s 752 mmHg 80%

Demain, 30 Septembre, Mercredi

Heure Température Précipitation Vent Pression Humidité
00:00 +12°C° 0 mm 2 m/s 752 mmHg 83%
01:00 +12°C° 0 mm 2 m/s 751 mmHg 85%
02:00 +10°C° 0 mm 2 m/s 750 mmHg 87%
03:00 +9°C° 0 mm 2 m/s 750 mmHg 90%
04:00 +9°C° 0 mm 3 m/s 750 mmHg 90%
05:00 +9°C° 0 mm 3 m/s 749 mmHg 90%
06:00 +9°C° 0 mm 3 m/s 749 mmHg 90%
07:00 +10°C° 0 mm 4 m/s 749 mmHg 85%
08:00 +12°C° 0 mm 5 m/s 748 mmHg 81%
09:00 +13°C° 0 mm 6 m/s 748 mmHg 76%
10:00 +13°C° 0.1 mm 6 m/s 747 mmHg 77%
11:00 +13°C° 0.1 mm 5 m/s 746 mmHg 78%
12:00 +14°C° 0.1 mm 5 m/s 745 mmHg 79%
13:00 +13°C° 0.8 mm 5 m/s 745 mmHg 83%
14:00 +13°C° 0.8 mm 6 m/s 744 mmHg 86%
15:00 +13°C° 0.8 mm 6 m/s 743 mmHg 90%
16:00 +12°C° 1.5 mm 7 m/s 742 mmHg 90%
17:00 +12°C° 1.5 mm 7 m/s 742 mmHg 90%
18:00 +14°C° 1.5 mm 7 m/s 741 mmHg 90%
19:00 +13°C° 0.1 mm 6 m/s 741 mmHg 91%
20:00 +12°C° 0.1 mm 5 m/s 741 mmHg 92%
21:00 +11°C° 0.1 mm 4 m/s 741 mmHg 93%
22:00 +10°C° 0 mm 4 m/s 741 mmHg 93%
23:00 +10°C° 0 mm 4 m/s 741 mmHg 93%

Après-demain, 1 Octobre, Jeudi

Heure Température Précipitation Vent Pression Humidité
00:00 +8°C° 0 mm 4 m/s 741 mmHg 93%
01:00 +8°C° 0 mm 3 m/s 741 mmHg 93%
02:00 +8°C° 0 mm 3 m/s 741 mmHg 93%
03:00 +7°C° 0 mm 3 m/s 741 mmHg 93%
04:00 +7°C° 0 mm 3 m/s 741 mmHg 93%
05:00 +7°C° 0 mm 3 m/s 741 mmHg 93%
06:00 +5°C° 0 mm 3 m/s 741 mmHg 93%
07:00 +7°C° 0 mm 3 m/s 741 mmHg 89%
08:00 +8°C° 0 mm 4 m/s 741 mmHg 84%
09:00 +10°C° 0 mm 4 m/s 742 mmHg 80%
10:00 +11°C° 0.1 mm 4 m/s 741 mmHg 73%
11:00 +12°C° 0.1 mm 4 m/s 741 mmHg 67%
12:00 +13°C° 0.1 mm 4 m/s 741 mmHg 60%
13:00 +13°C° 0 mm 4 m/s 741 mmHg 59%
14:00 +13°C° 0 mm 4 m/s 741 mmHg 57%
15:00 +13°C° 0 mm 4 m/s 740 mmHg 55%
16:00 +12°C° 0 mm 3 m/s 740 mmHg 62%
17:00 +10°C° 0 mm 3 m/s 740 mmHg 69%
18:00 +9°C° 0 mm 2 m/s 739 mmHg 77%
19:00 +9°C° 0 mm 2 m/s 739 mmHg 78%
20:00 +8°C° 0 mm 2 m/s 739 mmHg 79%
21:00 +8°C° 0 mm 2 m/s 739 mmHg 80%
22:00 +8°C° 0.1 mm 2 m/s 738 mmHg 81%
23:00 +8°C° 0.1 mm 3 m/s 738 mmHg 82%

2 Octobre, Vendredi

Heure Température Précipitation Vent Pression Humidité
00:00 +8°C° 0.1 mm 3 m/s 737 mmHg 82%
01:00 +8°C° 0.1 mm 3 m/s 737 mmHg 83%
02:00 +9°C° 0.1 mm 3 m/s 737 mmHg 83%
03:00 +8°C° 0.1 mm 4 m/s 737 mmHg 84%
04:00 +7°C° 0 mm 4 m/s 737 mmHg 86%
05:00 +7°C° 0 mm 4 m/s 736 mmHg 88%
06:00 +6°C° 0 mm 4 m/s 736 mmHg 91%
07:00 +7°C° 0 mm 4 m/s 736 mmHg 87%
08:00 +9°C° 0 mm 5 m/s 736 mmHg 83%
09:00 +10°C° 0 mm 6 m/s 736 mmHg 80%
10:00 +10°C° 0.1 mm 6 m/s 736 mmHg 83%
11:00 +10°C° 0.1 mm 7 m/s 736 mmHg 86%
12:00 +10°C° 0.1 mm 8 m/s 735 mmHg 89%
13:00 +10°C° 0.6 mm 7 m/s 735 mmHg 89%
14:00 +10°C° 0.6 mm 7 m/s 735 mmHg 89%
15:00 +10°C° 0.6 mm 6 m/s 735 mmHg 89%
16:00 +11°C° 0.4 mm 7 m/s 736 mmHg 90%
17:00 +11°C° 0.4 mm 7 m/s 736 mmHg 91%
18:00 +11°C° 0.4 mm 7 m/s 736 mmHg 92%
19:00 +11°C° 0.7 mm 7 m/s 736 mmHg 92%
20:00 +11°C° 0.7 mm 8 m/s 736 mmHg 92%
21:00 +12°C° 0.7 mm 8 m/s 736 mmHg 92%
22:00 +12°C° 0.7 mm 8 m/s 736 mmHg 92%
23:00 +12°C° 0.7 mm 8 m/s 736 mmHg 93%

3 Octobre, Samedi

Heure Température Précipitation Vent Pression Humidité
00:00 +12°C° 0.7 mm 8 m/s 736 mmHg 93%
01:00 +12°C° 0.7 mm 8 m/s 736 mmHg 93%
02:00 +12°C° 0.7 mm 8 m/s 736 mmHg 94%
03:00 +12°C° 0.7 mm 8 m/s 735 mmHg 94%
04:00 +12°C° 0.7 mm 8 m/s 735 mmHg 94%
05:00 +12°C° 0.7 mm 8 m/s 736 mmHg 93%
06:00 +12°C° 0.7 mm 8 m/s 736 mmHg 92%
07:00 +12°C° 1.8 mm 7 m/s 736 mmHg 92%
08:00 +13°C° 1.8 mm 6 m/s 736 mmHg 93%
09:00 +13°C° 1.8 mm 5 m/s 735 mmHg 93%
10:00 +12°C° 1.4 mm 4 m/s 735 mmHg 93%
11:00 +12°C° 1.4 mm 4 m/s 735 mmHg 93%
12:00 +11°C° 1.4 mm 3 m/s 735 mmHg 93%
13:00 +11°C° 1.5 mm 3 m/s 735 mmHg 93%
14:00 +11°C° 1.5 mm 3 m/s 735 mmHg 92%
15:00 +11°C° 1.5 mm 3 m/s 734 mmHg 92%
16:00 +11°C° 0.2 mm 3 m/s 734 mmHg 91%
17:00 +11°C° 0.2 mm 3 m/s 734 mmHg 90%
18:00 +10°C° 0.2 mm 2 m/s 734 mmHg 89%
19:00 +10°C° 0 mm 2 m/s 733 mmHg 89%
20:00 +9°C° 0 mm 2 m/s 733 mmHg 89%
21:00 +8°C° 0 mm 2 m/s 733 mmHg 89%
22:00 +8°C° 0 mm 2 m/s 732 mmHg 89%
23:00 +8°C° 0 mm 2 m/s 732 mmHg 89%

4 Octobre, Dimanche

Heure Température Précipitation Vent Pression Humidité
00:00 +7°C° 0 mm 2 m/s 731 mmHg 89%
01:00 +7°C° 0 mm 2 m/s 730 mmHg 90%
02:00 +8°C° 0 mm 2 m/s 730 mmHg 90%
03:00 +8°C° 0 mm 2 m/s 729 mmHg 91%
04:00 +8°C° 0.1 mm 2 m/s 729 mmHg 92%
05:00 +8°C° 0.1 mm 2 m/s 729 mmHg 92%
06:00 +9°C° 0.1 mm 2 m/s 729 mmHg 93%
07:00 +9°C° 0.2 mm 2 m/s 729 mmHg 91%
08:00 +10°C° 0.2 mm 2 m/s 729 mmHg 90%
09:00 +10°C° 0.2 mm 2 m/s 728 mmHg 89%
10:00 +12°C° 0.4 mm 2 m/s 729 mmHg 88%
11:00 +12°C° 0.4 mm 2 m/s 729 mmHg 87%
12:00 +12°C° 0.4 mm 2 m/s 729 mmHg 87%
13:00 +11°C° 0.6 mm 3 m/s 729 mmHg 89%
14:00 +11°C° 0.6 mm 3 m/s 729 mmHg 90%
15:00 +10°C° 0.6 mm 3 m/s 728 mmHg 92%
16:00 +11°C° 0.3 mm 3 m/s 728 mmHg 92%
17:00 +11°C° 0.3 mm 3 m/s 729 mmHg 92%
18:00 +11°C° 0.3 mm 3 m/s 729 mmHg 92%
19:00 +10°C° 0.1 mm 3 m/s 729 mmHg 93%
20:00 +10°C° 0.1 mm 3 m/s 729 mmHg 94%
21:00 +10°C° 0.1 mm 3 m/s 729 mmHg 95%
22:00 +10°C° 0 mm 3 m/s 729 mmHg 95%
23:00 +9°C° 0 mm 3 m/s 728 mmHg 96%
Voir plus